QPF
0.01 0.01 0.02 0.01 0.01 0.00 0.00 0.01 0.01 0.00 0.00 0.00 0.00 0.00 0.00 0.00 0.00 0.00 0.00 0.00 0.00 0.00 0.00 0.00 0.00 0.00 0.00 0.00 0.00 0.00 0.00 0.00 0.00 0.00 0.00 0.00 0.00 0.00 0.00 0.00 0.00 0.00 0.00 0.00 0.00 0.00 0.00 0.00 0.01 0.01 0.00 0.00 0.00 0.00
0.02 0.01 0.00 0.01 0.02 0.01 0.00 0.01 0.00 0.01 0.00 0.00 0.00 0.00 0.00 0.00 0.00 0.00 0.00 0.00 0.00 0.00 0.00 0.00 0.00 0.00 0.00 0.00 0.00 0.00 0.00 0.00 0.00 0.00 0.00 0.00 0.00 0.00 0.00 0.00 0.00 0.00 0.00 0.00 0.00 0.00 0.00 0.00 0.00 0.00 0.00 0.00 0.00 0.00
0.03 0.03 0.02 0.01 0.01 0.01 0.01 0.01 0.00 0.00 0.01 0.01 0.00 0.00 0.00 0.00 0.00 0.00 0.00 0.00 0.00 0.00 0.00 0.00 0.00 0.00 0.00 0.00 0.00 0.00 0.00 0.00 0.00 0.00 0.00 0.00 0.00 0.00 0.00 0.00 0.00 0.00 0.00 0.00 0.02 0.00 0.00 0.00 0.00 0.00 0.00 0.00 0.00 0.00
0.02 0.02 0.01 0.01 0.01 0.00 0.00 0.01 0.01 0.00 0.01 0.01 0.01 0.00 0.00 0.00 0.00 0.00 0.01 0.00 0.00 0.01 0.01 0.00 0.00 0.00 0.00 0.00 0.00 0.00 0.00 0.00 0.00 0.00 0.00 0.00 0.00 0.00 0.00 0.00 0.00 0.00 0.00 0.00 0.00 0.00 0.00 0.00 0.00 0.00 0.00 0.00 0.00 0.00
0.02 0.02 0.02 0.01 0.01 0.01 0.00 0.01 0.01 0.01 0.01 0.00 0.01 0.00 0.00 0.00 0.00 0.00 0.00 0.00 0.00 0.01 0.01 0.00 0.00 0.00 0.00 0.00 0.00 0.00 0.00 0.00 0.00 0.00 0.00 0.00 0.00 0.00 0.00 0.00 0.00 0.00 0.00 0.00 0.00 0.00 0.00 0.00 0.00 0.00 0.00 0.00 0.00 0.00
0.02 0.02 0.01 0.01 0.01 0.00 0.00 0.02 0.01 0.01 0.01 0.01 0.01 0.00 0.00 0.00 0.00 0.01 0.00 0.00 0.00 0.00 0.01 0.00 0.00 0.00 0.00 0.00 0.00 0.00 0.00 0.00 0.00 0.00 0.00 0.00 0.00 0.00 0.00 0.00 0.00 0.00 0.00 0.00 0.00 0.01 0.01 0.01 0.00 0.00 0.00 0.00 0.00 0.00
0.04 0.03 0.02 0.01 0.00 0.00 0.00 0.00 0.02 0.01 0.01 0.01 0.01 0.00 0.00 0.00 0.00 0.01 0.00 0.00 0.00 0.00 0.01 0.00 0.00 0.00 0.00 0.00 0.00 0.00 0.00 0.00 0.00 0.00 0.00 0.00 0.00 0.00 0.00 0.00 0.00 0.00 0.00 0.01 0.03 0.04 0.01 0.00 0.00 0.00 0.00 0.00 0.00 0.01
0.03 0.02 0.01 0.00 0.01 0.01 0.00 0.00 0.00 0.01 0.01 0.01 0.00 0.00 0.00 0.00 0.01 0.01 0.01 0.01 0.00 0.00 0.01 0.00 0.00 0.00 0.00 0.00 0.00 0.01 0.00 0.00 0.00 0.00 0.00 0.00 0.00 0.00 0.00 0.00 0.00 0.00 0.00 0.01 0.03 0.00 0.00 0.00 0.00 0.00 0.00 0.00 0.00 0.01
0.03 0.02 0.02 0.01 0.01 0.01 0.00 0.00 0.00 0.01 0.01 0.00 0.00 0.00 0.01 0.01 0.01 0.00 0.01 0.02 0.02 0.01 0.02 0.00 0.00 0.03 0.01 0.00 0.00 0.00 0.00 0.00 0.00 0.00 0.00 0.00 0.00 0.00 0.00 0.00 0.00 0.00 0.00 0.00 0.00 0.00 0.00 0.00 0.01 0.00 0.01 0.00 0.00 0.00
0.04 0.03 0.02 0.01 0.01 0.00 0.00 0.00 0.00 0.01 0.00 0.00 0.00 0.02 0.01 0.00 0.01 0.03 0.04 0.04 0.01 0.01 0.00 0.00 0.00 0.01 0.04 0.02 0.01 0.00 0.00 0.00 0.00 0.00 0.00 0.00 0.00 0.00 0.00 0.00 0.01 0.00 0.00 0.00 0.00 0.00 0.00 0.00 0.01 0.03 0.00 0.00 0.00 0.00
0.03 0.02 0.01 0.01 0.01 0.00 0.01 0.01 0.01 0.00 0.00 0.01 0.01 0.01 0.01 0.04 0.09 0.05 0.03 0.02 0.00 0.00 0.00 0.00 0.00 0.00 0.02 0.05 0.02 0.00 0.00 0.01 0.01 0.01 0.01 0.00 0.00 0.01 0.01 0.04 0.03 0.03 0.01 0.00 0.00 0.00 0.00 0.00 0.00 0.00 0.00 0.00 0.00 0.00
0.01 0.01 0.01 0.00 0.01 0.01 0.01 0.01 0.01 0.00 0.01 0.01 0.02 0.05 0.04 0.04 0.04 0.01 0.01 0.00 0.00 0.00 0.00 0.00 0.00 0.00 0.00 0.02 0.07 0.05 0.03 0.01 0.00 0.06 0.05 0.01 0.05 0.05 0.03 0.03 0.01 0.01 0.01 0.00 0.01 0.01 0.01 0.00 0.00 0.00 0.00 0.00 0.00 0.01
0.01 0.00 0.00 0.00 0.01 0.00 0.00 0.00 0.00 0.00 0.02 0.04 0.03 0.04 0.04 0.02 0.01 0.00 0.00 0.00 0.00 0.02 0.00 0.00 0.00 0.00 0.01 0.02 0.02 0.02 0.05 0.02 0.03 0.03 0.01 0.03 0.04 0.00 0.00 0.01 0.00 0.00 0.00 0.00 0.00 0.00 0.00 0.00 0.00 0.00 0.00 0.00 0.00 0.00
0.01 0.00 0.00 0.01 0.00 0.00 0.00 0.00 0.00 0.01 0.02 0.05 0.02 0.00 0.00 0.00 0.00 0.00 0.00 0.00 0.01 0.01 0.00 0.00 0.00 0.00 0.01 0.01 0.00 0.01 0.05 0.06 0.04 0.02 0.01 0.04 0.02 0.03 0.01 0.00 0.00 0.00 0.00 0.00 0.00 0.00 0.00 0.00 0.00 0.00 0.00 0.00 0.00 0.01
0.01 0.01 0.01 0.01 0.01 0.00 0.00 0.00 0.01 0.00 0.01 0.01 0.01 0.01 0.00 0.00 0.00 0.00 0.00 0.00 0.00 0.00 0.01 0.02 0.00 0.00 0.00 0.00 0.00 0.01 0.05 0.06 0.01 0.01 0.02 0.01 0.02 0.01 0.00 0.00 0.00 0.00 0.00 0.00 0.00 0.00 0.00 0.00 0.00 0.00 0.00 0.00 0.00 0.00
0.02 0.02 0.00 0.00 0.00 0.00 0.00 0.00 0.00 0.00 0.00 0.01 0.01 0.01 0.01 0.03 0.02 0.01 0.00 0.00 0.00 0.00 0.03 0.02 0.03 0.01 0.00 0.00 0.02 0.01 0.05 0.03 0.02 0.02 0.01 0.04 0.02 0.00 0.00 0.00 0.00 0.00 0.00 0.00 0.00 0.00 0.00 0.00 0.00 0.00 0.00 0.00 0.00 0.00
0.01 0.00 0.00 0.00 0.00 0.00 0.00 0.00 0.00 0.00 0.01 0.01 0.01 0.02 0.05 0.07 0.05 0.03 0.00 0.00 0.00 0.01 0.02 0.02 0.03 0.01 0.03 0.02 0.01 0.00 0.01 0.01 0.01 0.01 0.02 0.03 0.02 0.00 0.00 0.00 0.00 0.00 0.00 0.00 0.00 0.00 0.00 0.00 0.00 0.00 0.00 0.00 0.00 0.00
0.00 0.00 0.00 0.00 0.00 0.00 0.00 0.00 0.00 0.00 0.00 0.01 0.02 0.01 0.01 0.01 0.01 0.01 0.00 0.02 0.03 0.02 0.04 0.03 0.02 0.01 0.01 0.01 0.00 0.00 0.00 0.00 0.00 0.03 0.03 0.01 0.00 0.00 0.00 0.00 0.00 0.00 0.00 0.00 0.00 0.00 0.00 0.00 0.00 0.00 0.00 0.00 0.00 0.00
0.00 0.00 0.00 0.00 0.00 0.00 0.00 0.00 0.00 0.00 0.01 0.01 0.00 0.01 0.00 0.00 0.00 0.00 0.01 0.00 0.00 0.00 0.00 0.00 0.00 0.00 0.00 0.00 0.00 0.00 0.00 0.00 0.00 0.00 0.00 0.00 0.00 0.00 0.00 0.00 0.00 0.00 0.00 0.00 0.00 0.00 0.00 0.00 0.00 0.00 0.00 0.00 0.00 0.00
0.00 0.00 0.00 0.00 0.00 0.00 0.00 0.00 0.00 0.00 0.00 0.00 0.00 0.00 0.00 0.00 0.00 0.00 0.00 0.00 0.00 0.00 0.00 0.00 0.00 0.00 0.00 0.00 0.00 0.00 0.00 0.00 0.00 0.00 0.00 0.00 0.00 0.00 0.00 0.00 0.00 0.00 0.00 0.00 0.00 0.00 0.00 0.00 0.00 0.00 0.00 0.00 0.00 0.00
0.00 0.00 0.00 0.00 0.00 0.00 0.00 0.00 0.00 0.00 0.00 0.00 0.00 0.00 0.01 0.01 0.01 0.01 0.00 0.00 0.00 0.01 0.00 0.00 0.00 0.00 0.00 0.00 0.00 0.00 0.00 0.00 0.00 0.00 0.00 0.00 0.00 0.00 0.00 0.00 0.00 0.00 0.00 0.00 0.00 0.00 0.00 0.00 0.00 0.00 0.00 0.00 0.01 0.01
0.00 0.00 0.00 0.00 0.00 0.00 0.00 0.00 0.00 0.00 0.00 0.00 0.00 0.00 0.00 0.00 0.00 0.00 0.00 0.00 0.00 0.00 0.00 0.00 0.00 0.00 0.00 0.00 0.00 0.00 0.00 0.00 0.00 0.00 0.00 0.00 0.00 0.00 0.00 0.00 0.00 0.00 0.00 0.00 0.00 0.00 0.00 0.00 0.00 0.00 0.00 0.00 0.01 0.00
0.00 0.00 0.00 0.00 0.00 0.00 0.00 0.00 0.00 0.00 0.00 0.00 0.00 0.00 0.00 0.00 0.00 0.00 0.00 0.00 0.00 0.00 0.01 0.00 0.00 0.00 0.00 0.00 0.00 0.00 0.00 0.00 0.00 0.00 0.00 0.00 0.00 0.00 0.00 0.00 0.00 0.00 0.00 0.00 0.00 0.00 0.00 0.00 0.00 0.00 0.00 0.00 0.01 0.00
0.00 0.00 0.00 0.00 0.00 0.00 0.00 0.00 0.00 0.00 0.00 0.00 0.00 0.00 0.00 0.00 0.00 0.00 0.01 0.00 0.00 0.00 0.00 0.00 0.00 0.00 0.00 0.00 0.00 0.00 0.00 0.00 0.00 0.00 0.00 0.00 0.00 0.00 0.00 0.00 0.00 0.00 0.00 0.00 0.00 0.00 0.00 0.00 0.00 0.00 0.00 0.00 0.00 0.00
0.00 0.00 0.00 0.00 0.00 0.00 0.00 0.00 0.00 0.00 0.00 0.00 0.00 0.00 0.00 0.00 0.00 0.00 0.00 0.00 0.00 0.00 0.00 0.00 0.00 0.00 0.00 0.00 0.00 0.00 0.00 0.00 0.00 0.00 0.00 0.00 0.00 0.00 0.00 0.00 0.00 0.00 0.00 0.00 0.00 0.00 0.00 0.00 0.00 0.00 0.00 0.00 0.00 0.00
0.00 0.00 0.00 0.00 0.00 0.00 0.00 0.00 0.00 0.00 0.00 0.00 0.00 0.00 0.00 0.00 0.00 0.00 0.00 0.00 0.00 0.00 0.00 0.00 0.00 0.00 0.00 0.00 0.00 0.00 0.00 0.00 0.00 0.00 0.00 0.00 0.00 0.00 0.00 0.00 0.00 0.00 0.00 0.00 0.00 0.00 0.00 0.00 0.00 0.00 0.00 0.00 0.00 0.00
0.00 0.00 0.00 0.00 0.00 0.00 0.00 0.00 0.00 0.00 0.00 0.00 0.00 0.00 0.00 0.00 0.00 0.00 0.00 0.00 0.00 0.00 0.00 0.00 0.00 0.00 0.00 0.00 0.00 0.00 0.00 0.00 0.00 0.00 0.00 0.00 0.00 0.00 0.00 0.00 0.00 0.00 0.00 0.00 0.00 0.00 0.00 0.00 0.00 0.00 0.00 0.00 0.00 0.00
0.00 0.00 0.00 0.00 0.00 0.00 0.00 0.00 0.00 0.00 0.00 0.00 0.00 0.00 0.00 0.00 0.00 0.00 0.00 0.00 0.00 0.00 0.00 0.00 0.00 0.00 0.00 0.00 0.00 0.00 0.00 0.00 0.00 0.00 0.00 0.00 0.00 0.00 0.00 0.00 0.00 0.00 0.00 0.00 0.00 0.00 0.00 0.00 0.00 0.00 0.00 0.00 0.00 0.00
0.00 0.00 0.00 0.00 0.00 0.00 0.00 0.00 0.00 0.00 0.00 0.00 0.00 0.00 0.00 0.00 0.00 0.00 0.00 0.00 0.00 0.00 0.00 0.00 0.00 0.00 0.00 0.00 0.00 0.00 0.00 0.00 0.00 0.00 0.00 0.00 0.00 0.00 0.00 0.00 0.00 0.00 0.00 0.00 0.00 0.00 0.00 0.00 0.00 0.00 0.00 0.00 0.00 0.00
0.00 0.00 0.00 0.00 0.00 0.00 0.00 0.00 0.00 0.00 0.00 0.00 0.00 0.00 0.00 0.00 0.00 0.00 0.00 0.00 0.00 0.00 0.00 0.00 0.00 0.00 0.00 0.00 0.00 0.00 0.00 0.00 0.00 0.00 0.00 0.00 0.00 0.00 0.00 0.00 0.00 0.00 0.00 0.00 0.00 0.00 0.00 0.00 0.00 0.00 0.00 0.00 0.00 0.00
0.00 0.00 0.00 0.00 0.00 0.00 0.00 0.00 0.00 0.00 0.00 0.00 0.00 0.00 0.00 0.00 0.00 0.00 0.00 0.00 0.00 0.00 0.00 0.00 0.00 0.00 0.00 0.00 0.00 0.00 0.00 0.00 0.00 0.00 0.00 0.00 0.00 0.00 0.00 0.00 0.00 0.00 0.00 0.00 0.00 0.00 0.00 0.00 0.00 0.00 0.00 0.00 0.00 0.00
0.00 0.00 0.00 0.00 0.00 0.00 0.00 0.00 0.00 0.00 0.00 0.00 0.00 0.00 0.00 0.00 0.00 0.00 0.00 0.00 0.00 0.00 0.00 0.00 0.00 0.00 0.00 0.00 0.00 0.00 0.00 0.00 0.00 0.00 0.00 0.00 0.00 0.00 0.00 0.00 0.00 0.00 0.00 0.00 0.00 0.00 0.00 0.00 0.00 0.00 0.00 0.00 0.00 0.00
0.00 0.00 0.00 0.00 0.00 0.00 0.00 0.00 0.00 0.00 0.00 0.00 0.00 0.00 0.00 0.00 0.00 0.00 0.00 0.00 0.00 0.00 0.00 0.00 0.00 0.00 0.00 0.00 0.00 0.00 0.00 0.00 0.00 0.00 0.00 0.00 0.00 0.00 0.00 0.00 0.00 0.00 0.00 0.00 0.00 0.00 0.00 0.00 0.00 0.00 0.00 0.00 0.00 0.00
MSLP
1017.70 1017.80 1017.96 1018.16 1018.35 1018.46 1018.50 1018.61 1018.59 1018.50 1018.38 1018.38 1018.39 1018.41 1018.51 1018.61 1018.61 1018.62 1018.03 1017.87 1018.03 1017.62 1016.54 1016.02 1015.61 1015.48 1015.41 1015.48 1015.80 1015.38 1015.07 1014.75 1014.40 1014.83 1015.01 1014.74 1014.36 1013.64 1013.48 1013.07 1013.11 1013.62 1013.84 1013.98 1013.77 1012.75 1011.38 1010.12 1010.26 1010.10 1009.16 1008.80 1008.75 1008.76
1016.78 1016.97 1017.25 1017.47 1017.57 1017.69 1017.93 1018.06 1018.08 1018.06 1017.96 1017.93 1018.02 1018.00 1018.08 1018.16 1018.27 1018.29 1017.98 1017.43 1017.51 1017.78 1016.87 1015.80 1015.25 1015.01 1014.75 1014.90 1015.33 1015.44 1015.39 1015.13 1014.70 1015.01 1015.29 1015.14 1014.77 1014.36 1014.06 1013.75 1013.12 1013.39 1013.14 1013.24 1013.01 1011.56 1010.11 1009.67 1009.36 1008.60 1008.62 1008.80 1008.51 1008.47
1015.88 1016.10 1016.36 1016.72 1016.91 1017.13 1017.33 1017.45 1017.58 1017.55 1017.55 1017.56 1017.61 1017.56 1017.63 1017.79 1017.84 1018.00 1017.72 1017.34 1017.44 1017.30 1016.38 1015.65 1014.27 1013.70 1013.72 1013.77 1014.04 1014.93 1014.95 1014.56 1014.57 1014.25 1014.89 1015.19 1015.19 1014.60 1014.41 1013.84 1013.17 1012.73 1012.54 1012.63 1012.43 1010.53 1009.80 1009.02 1008.64 1008.42 1008.19 1008.31 1008.15 1008.19
1015.08 1015.34 1015.63 1015.91 1016.13 1016.47 1016.71 1016.91 1017.00 1017.05 1017.08 1017.11 1017.11 1017.17 1017.26 1017.36 1017.51 1017.65 1017.45 1017.09 1017.18 1016.93 1016.17 1014.66 1013.70 1013.41 1012.55 1012.90 1013.27 1013.24 1013.59 1014.41 1014.62 1014.51 1014.70 1015.18 1015.24 1014.33 1014.08 1013.65 1013.34 1012.52 1012.29 1011.92 1011.53 1010.27 1009.31 1008.40 1008.04 1008.17 1008.15 1008.17 1008.09 1007.87
1014.36 1014.59 1014.90 1015.22 1015.53 1015.85 1016.17 1016.35 1016.41 1016.55 1016.63 1016.69 1016.72 1016.76 1016.81 1016.99 1017.14 1017.21 1016.80 1016.63 1016.44 1017.00 1016.05 1014.90 1013.72 1011.95 1011.58 1011.92 1012.21 1012.63 1013.36 1014.15 1014.94 1015.08 1015.21 1015.17 1014.51 1014.43 1013.98 1013.84 1012.91 1011.88 1011.43 1011.43 1010.71 1009.55 1009.40 1008.62 1008.13 1008.05 1008.10 1008.06 1007.90 1007.83
1013.67 1013.92 1014.24 1014.58 1014.99 1015.33 1015.52 1015.76 1015.96 1016.10 1016.21 1016.25 1016.28 1016.34 1016.49 1016.68 1016.72 1016.54 1016.45 1015.82 1015.96 1016.50 1016.34 1015.14 1013.11 1011.95 1011.33 1011.39 1011.70 1012.19 1012.74 1014.05 1014.52 1014.89 1014.67 1014.04 1013.32 1013.57 1013.81 1013.20 1011.42 1010.77 1010.42 1010.34 1010.09 1009.42 1009.08 1008.69 1008.10 1007.90 1008.03 1007.94 1007.82 1007.64
1013.05 1013.34 1013.70 1014.05 1014.45 1014.78 1015.07 1015.30 1015.52 1015.69 1015.81 1015.91 1015.91 1015.96 1016.18 1016.32 1016.61 1016.05 1015.82 1015.83 1015.55 1016.20 1016.09 1015.48 1013.77 1011.83 1011.14 1011.14 1011.74 1012.40 1012.70 1013.20 1013.51 1013.90 1013.93 1013.60 1013.32 1013.28 1013.30 1012.76 1011.24 1010.35 1010.13 1009.87 1009.76 1009.32 1008.89 1008.41 1008.38 1008.19 1008.19 1008.07 1007.95 1007.59
1012.49 1012.85 1013.24 1013.66 1014.01 1014.31 1014.70 1014.93 1015.12 1015.36 1015.48 1015.51 1015.55 1015.79 1015.80 1015.87 1016.11 1015.79 1015.13 1015.11 1015.58 1015.76 1015.61 1015.38 1014.04 1012.78 1011.12 1011.30 1011.71 1011.81 1012.61 1013.01 1013.11 1012.93 1013.10 1013.06 1013.27 1013.33 1012.93 1011.05 1010.57 1010.14 1009.73 1009.44 1009.15 1009.04 1008.80 1008.42 1008.29 1008.10 1008.12 1008.13 1008.07 1007.84
1011.99 1012.39 1012.83 1013.29 1013.59 1013.93 1014.31 1014.56 1014.76 1014.96 1015.18 1015.26 1015.44 1015.63 1015.67 1015.31 1014.97 1014.69 1014.53 1014.84 1015.19 1015.93 1015.28 1015.07 1014.71 1013.33 1011.56 1011.45 1011.30 1011.71 1011.72 1012.62 1012.72 1012.59 1012.51 1012.60 1012.96 1012.91 1011.65 1011.04 1010.48 1009.98 1009.73 1009.16 1008.77 1008.49 1008.20 1008.21 1008.06 1007.99 1008.08 1008.21 1008.08 1007.73
1011.58 1012.04 1012.45 1012.84 1013.20 1013.58 1013.92 1014.18 1014.45 1014.73 1014.93 1015.27 1015.61 1015.07 1014.71 1014.19 1014.01 1014.09 1014.82 1015.08 1015.02 1015.13 1015.04 1014.62 1014.13 1013.47 1012.52 1011.77 1011.37 1011.53 1011.74 1011.99 1012.34 1011.74 1011.77 1012.04 1012.19 1011.63 1011.02 1010.65 1010.23 1009.80 1009.62 1009.33 1009.18 1008.67 1008.63 1008.50 1008.48 1008.45 1008.21 1008.05 1007.78 1007.55
1011.30 1011.69 1012.07 1012.49 1012.88 1013.24 1013.52 1013.84 1014.18 1014.56 1014.96 1015.01 1014.04 1014.08 1013.86 1013.56 1014.09 1014.40 1014.55 1014.65 1014.63 1014.66 1014.01 1013.42 1013.23 1013.11 1012.28 1012.02 1011.69 1011.39 1011.44 1011.52 1011.67 1011.33 1011.57 1011.95 1011.82 1011.29 1010.69 1010.26 1009.83 1009.67 1009.50 1009.21 1009.34 1008.55 1008.74 1008.62 1008.52 1008.30 1008.14 1007.87 1007.59 1007.49
1011.03 1011.39 1011.80 1012.25 1012.61 1012.93 1013.23 1013.57 1013.90 1014.40 1014.12 1013.82 1013.62 1013.59 1013.69 1013.86 1013.90 1014.25 1014.18 1014.05 1013.81 1013.18 1012.52 1012.44 1012.16 1012.29 1011.80 1011.54 1011.52 1011.36 1011.29 1011.30 1010.93 1010.90 1011.22 1011.60 1011.46 1010.91 1010.60 1010.07 1009.87 1009.63 1009.39 1009.02 1008.81 1008.51 1008.48 1008.18 1007.96 1007.87 1007.83 1007.80 1007.65 1007.43
1010.86 1011.26 1011.74 1012.11 1012.38 1012.66 1013.00 1013.37 1013.66 1013.71 1013.86 1013.47 1013.42 1013.06 1013.18 1013.52 1013.34 1013.28 1012.95 1012.58 1012.38 1011.58 1011.12 1011.31 1011.45 1011.32 1011.43 1011.14 1011.26 1011.25 1010.94 1010.67 1010.45 1010.79 1011.20 1011.46 1011.11 1010.96 1010.70 1010.38 1009.97 1009.56 1009.32 1009.09 1008.87 1008.62 1008.47 1008.34 1008.06 1007.88 1007.76 1007.58 1007.49 1007.34
1010.86 1011.26 1011.63 1011.93 1012.25 1012.62 1012.92 1013.36 1013.55 1013.71 1013.26 1012.88 1012.73 1012.82 1012.71 1012.48 1012.17 1011.74 1011.45 1011.09 1010.64 1010.44 1010.38 1010.47 1010.66 1010.62 1010.49 1010.76 1010.83 1011.14 1010.51 1010.44 1010.64 1011.03 1011.49 1011.57 1011.24 1010.93 1010.82 1010.68 1010.43 1010.17 1009.87 1009.65 1009.39 1009.13 1008.84 1008.54 1008.29 1008.06 1007.85 1007.68 1007.48 1007.17
1010.93 1011.32 1011.67 1012.03 1012.26 1012.61 1012.98 1013.15 1013.23 1013.25 1013.05 1012.66 1012.13 1011.86 1011.74 1011.27 1010.95 1010.75 1010.58 1010.41 1010.02 1009.86 1009.91 1010.03 1009.97 1009.84 1010.43 1010.31 1009.78 1009.69 1010.01 1010.40 1011.00 1011.40 1011.61 1011.55 1011.39 1011.43 1011.34 1011.02 1010.73 1010.47 1010.30 1010.14 1009.94 1009.65 1009.18 1008.88 1008.52 1008.22 1007.89 1007.74 1007.51 1007.25
1011.16 1011.58 1011.89 1011.96 1012.20 1012.58 1012.85 1012.86 1013.21 1013.34 1012.97 1012.64 1011.98 1011.46 1011.01 1010.98 1010.62 1010.37 1010.19 1009.94 1009.42 1009.49 1009.53 1009.45 1009.52 1009.99 1009.78 1009.65 1009.55 1010.75 1010.66 1011.49 1011.68 1011.85 1012.12 1012.11 1011.89 1011.69 1011.42 1011.26 1011.23 1011.04 1010.87 1010.68 1010.31 1009.92 1009.53 1009.17 1008.83 1008.57 1008.16 1007.79 1007.60 1007.49
1011.26 1011.66 1011.78 1012.02 1012.36 1012.67 1012.93 1013.11 1013.42 1013.44 1013.16 1012.81 1011.60 1011.09 1010.95 1010.81 1010.57 1010.13 1009.80 1009.46 1009.35 1009.43 1009.54 1009.27 1009.48 1009.97 1009.92 1010.45 1011.55 1012.03 1011.95 1012.24 1012.43 1012.33 1012.38 1012.43 1012.35 1012.07 1011.90 1011.79 1011.71 1011.54 1011.35 1011.08 1010.74 1010.36 1010.06 1009.68 1009.27 1008.84 1008.70 1008.38 1007.94 1007.58
1011.73 1011.94 1012.00 1012.28 1012.62 1012.94 1013.02 1013.11 1013.34 1013.11 1012.62 1011.89 1011.29 1010.68 1010.55 1010.22 1010.18 1010.09 1009.80 1009.46 1009.34 1009.20 1009.45 1009.83 1010.03 1010.68 1011.42 1012.13 1012.34 1012.47 1012.42 1012.39 1012.56 1012.66 1012.79 1012.82 1012.69 1012.51 1012.30 1012.27 1012.06 1011.87 1011.68 1011.44 1011.18 1010.82 1010.39 1009.98 1009.66 1009.52 1009.09 1008.63 1008.23 1007.86
1012.09 1012.24 1012.47 1012.60 1012.81 1012.82 1012.99 1013.21 1012.99 1012.20 1011.87 1011.39 1010.83 1010.51 1010.50 1010.02 1009.73 1009.86 1009.69 1009.38 1009.06 1008.92 1009.44 1010.21 1011.04 1012.02 1012.40 1012.43 1012.62 1012.70 1012.81 1013.00 1013.10 1013.20 1013.20 1013.10 1012.91 1012.89 1012.85 1012.66 1012.48 1012.26 1011.98 1011.69 1011.38 1011.07 1010.79 1010.42 1010.24 1009.92 1009.55 1009.11 1008.91 1008.67
1012.54 1012.85 1012.91 1012.71 1012.52 1012.58 1012.54 1012.37 1012.37 1012.20 1011.27 1011.22 1010.83 1010.82 1010.67 1010.72 1010.34 1009.85 1009.63 1009.59 1009.42 1009.86 1011.27 1012.06 1012.74 1012.82 1012.72 1012.67 1012.71 1012.86 1012.91 1013.11 1013.20 1013.47 1013.50 1013.42 1013.41 1013.39 1013.35 1013.16 1012.99 1012.72 1012.43 1012.08 1011.75 1011.42 1011.05 1010.66 1010.39 1010.18 1009.89 1009.69 1009.30 1008.95
1013.00 1013.06 1012.85 1012.75 1012.61 1012.43 1012.54 1012.37 1012.22 1011.95 1011.70 1011.35 1011.25 1011.21 1011.52 1011.13 1011.14 1011.22 1011.12 1010.96 1011.39 1012.53 1013.16 1013.40 1013.37 1013.10 1012.95 1012.88 1012.95 1013.02 1013.09 1013.21 1013.23 1013.32 1013.54 1013.73 1013.73 1013.59 1013.57 1013.47 1013.24 1012.95 1012.75 1012.56 1012.29 1011.91 1011.58 1011.45 1011.01 1010.42 1010.11 1009.97 1009.94 1009.56
1013.28 1013.06 1013.05 1012.90 1012.78 1012.58 1012.65 1012.22 1012.41 1012.16 1012.03 1012.04 1011.78 1011.90 1012.49 1012.71 1012.67 1012.71 1012.79 1012.73 1013.47 1013.91 1013.96 1013.92 1013.70 1013.36 1013.15 1013.17 1013.19 1013.17 1013.39 1013.37 1013.43 1013.48 1013.51 1013.57 1013.78 1013.74 1013.81 1013.80 1013.55 1013.54 1013.31 1013.14 1012.88 1012.68 1012.27 1011.88 1011.34 1010.80 1010.51 1010.74 1010.83 1010.82
1013.23 1013.31 1013.50 1013.37 1013.09 1012.97 1012.59 1012.10 1012.19 1012.16 1012.54 1012.90 1012.89 1013.41 1014.00 1013.95 1013.56 1013.16 1013.83 1014.38 1014.54 1014.38 1014.31 1014.11 1013.89 1013.72 1013.62 1013.71 1013.74 1013.85 1013.79 1013.75 1013.79 1013.85 1013.89 1013.88 1013.88 1013.92 1013.93 1013.90 1013.87 1013.90 1013.80 1013.52 1013.42 1013.15 1012.84 1012.36 1011.97 1011.74 1011.73 1011.64 1011.64 1011.70
1013.52 1013.88 1013.85 1013.87 1013.75 1013.33 1012.50 1012.47 1012.56 1012.96 1013.39 1013.96 1014.46 1015.06 1015.27 1015.00 1014.40 1014.42 1014.99 1015.06 1014.97 1014.77 1014.55 1014.44 1014.22 1014.25 1014.30 1014.42 1014.80 1014.78 1014.49 1014.23 1014.14 1014.08 1014.03 1014.03 1014.18 1014.31 1014.25 1014.22 1014.16 1014.16 1014.07 1013.94 1013.71 1013.48 1013.22 1013.04 1012.77 1012.52 1012.46 1012.41 1012.44 1012.47
1014.28 1014.66 1014.51 1014.51 1014.12 1013.87 1013.83 1013.94 1014.10 1014.27 1015.24 1015.50 1015.68 1016.04 1016.05 1015.67 1015.67 1015.86 1015.88 1015.58 1015.19 1015.07 1015.11 1014.96 1014.85 1015.02 1015.33 1015.53 1015.49 1015.28 1014.92 1014.76 1014.73 1014.84 1014.75 1014.51 1014.41 1014.41 1014.48 1014.48 1014.46 1014.43 1014.21 1014.05 1014.01 1013.85 1013.83 1013.65 1013.49 1013.37 1013.28 1013.17 1013.14 1013.13
1015.15 1015.75 1015.71 1015.64 1015.51 1015.06 1015.19 1015.39 1015.58 1015.86 1016.04 1016.44 1016.60 1016.57 1016.32 1016.36 1016.50 1016.45 1016.41 1016.02 1015.95 1015.77 1015.77 1015.76 1015.69 1015.82 1016.12 1016.14 1016.08 1015.85 1015.54 1015.14 1014.88 1014.91 1015.20 1014.96 1014.79 1014.68 1014.88 1015.01 1014.97 1014.70 1014.57 1014.38 1014.25 1014.12 1014.09 1014.12 1014.07 1013.99 1013.95 1013.94 1013.86 1013.70
1016.62 1016.82 1016.54 1016.49 1016.25 1015.92 1016.15 1016.23 1016.29 1016.40 1016.75 1016.97 1016.98 1016.91 1016.92 1016.98 1016.91 1016.87 1016.23 1016.09 1016.25 1016.15 1016.11 1016.03 1016.08 1016.24 1016.59 1016.54 1016.37 1016.13 1015.75 1015.52 1015.41 1015.48 1015.51 1015.27 1015.06 1015.02 1015.04 1015.16 1015.20 1015.18 1014.87 1014.63 1014.52 1014.54 1014.56 1014.55 1014.50 1014.45 1014.46 1014.42 1014.37 1014.25
1017.39 1017.33 1017.10 1017.03 1016.53 1016.33 1016.53 1016.74 1016.87 1017.06 1017.15 1017.21 1017.22 1017.11 1017.10 1017.03 1016.97 1016.53 1016.39 1016.36 1016.38 1016.48 1016.52 1016.68 1016.76 1016.76 1016.85 1016.96 1016.92 1016.59 1016.29 1016.12 1015.86 1015.82 1015.74 1015.66 1015.69 1015.68 1015.58 1015.44 1015.40 1015.29 1015.16 1015.04 1014.96 1014.87 1014.88 1014.91 1014.94 1014.94 1014.88 1014.78 1014.64 1014.45
1017.57 1017.42 1017.26 1017.07 1016.74 1016.61 1016.79 1016.85 1016.91 1016.84 1016.89 1016.91 1016.99 1017.18 1017.18 1017.00 1016.98 1016.77 1016.74 1016.67 1016.74 1016.84 1017.12 1017.27 1017.41 1017.27 1017.29 1017.33 1017.26 1017.17 1016.88 1016.55 1016.40 1016.52 1016.58 1016.70 1016.62 1016.49 1016.38 1016.10 1015.82 1015.67 1015.60 1015.45 1015.29 1015.24 1015.20 1015.19 1015.14 1015.06 1015.00 1014.95 1014.77 1014.52
1017.50 1017.27 1017.12 1016.88 1016.74 1016.90 1016.72 1016.50 1016.45 1016.44 1016.48 1016.44 1016.60 1017.01 1017.25 1017.25 1017.33 1017.15 1016.97 1017.05 1017.19 1017.25 1017.28 1017.34 1017.46 1017.61 1017.76 1017.74 1017.81 1017.69 1017.53 1017.29 1017.05 1017.10 1017.19 1017.26 1017.31 1017.13 1016.80 1016.42 1016.13 1015.90 1015.66 1015.52 1015.51 1015.50 1015.39 1015.32 1015.22 1015.13 1015.05 1014.91 1014.77 1014.64
1017.08 1016.92 1016.68 1016.47 1016.55 1016.52 1016.32 1016.21 1016.20 1016.31 1016.60 1016.89 1016.98 1017.17 1017.73 1017.72 1017.51 1017.31 1017.26 1017.35 1017.36 1017.32 1017.39 1017.53 1017.53 1017.54 1017.69 1017.78 1017.77 1017.80 1017.80 1017.67 1017.50 1017.42 1017.42 1017.44 1017.40 1017.22 1016.95 1016.69 1016.40 1016.04 1015.71 1015.54 1015.55 1015.54 1015.56 1015.54 1015.45 1015.34 1015.20 1015.04 1014.93 1014.81
1016.64 1016.48 1016.44 1016.56 1016.45 1016.19 1015.93 1016.18 1016.45 1016.82 1016.93 1017.00 1017.12 1017.13 1017.45 1017.67 1017.76 1017.51 1017.20 1017.26 1017.33 1017.50 1017.59 1017.59 1017.51 1017.47 1017.47 1017.48 1017.45 1017.49 1017.46 1017.60 1017.67 1017.64 1017.58 1017.52 1017.44 1017.31 1017.14 1016.90 1016.64 1016.37 1016.13 1015.94 1015.87 1015.76 1015.69 1015.63 1015.53 1015.41 1015.29 1015.09 1014.89 1014.73
1016.25 1016.18 1016.15 1016.24 1016.30 1016.15 1016.12 1016.04 1016.26 1016.57 1016.62 1016.72 1016.75 1016.84 1017.15 1017.37 1017.35 1017.07 1016.75 1016.79 1017.02 1017.23 1017.37 1017.34 1017.30 1017.25 1017.29 1017.38 1017.49 1017.53 1017.60 1017.62 1017.57 1017.49 1017.35 1017.19 1017.07 1017.01 1016.98 1016.91 1016.81 1016.66 1016.53 1016.38 1016.20 1015.99 1015.81 1015.65 1015.52 1015.37 1015.22 1015.06 1014.86 1014.71
Thickness
5476 5479 5482 5484 5487 5491 5496 5500 5505 5510 5516 5521 5525 5529 5532 5535 5540 5545 5552 5556 5561 5573 5586 5590 5593 5593 5594 5595 5593 5601 5606 5608 5611 5610 5608 5609 5609 5616 5620 5624 5625 5615 5608 5601 5599 5603 5609 5640 5635 5628 5635 5645 5645 5644
5466 5468 5469 5472 5475 5479 5483 5487 5492 5497 5503 5508 5512 5516 5519 5523 5527 5532 5538 5544 5548 5552 5569 5575 5582 5584 5591 5589 5586 5586 5591 5593 5600 5597 5595 5594 5602 5599 5602 5606 5614 5604 5608 5604 5606 5609 5631 5635 5636 5643 5640 5637 5640 5642
5456 5458 5459 5460 5464 5467 5471 5475 5479 5484 5489 5495 5499 5504 5508 5511 5516 5519 5524 5530 5534 5543 5558 5564 5574 5578 5583 5588 5588 5578 5578 5589 5591 5594 5589 5589 5592 5592 5595 5595 5607 5611 5609 5605 5608 5628 5627 5635 5637 5638 5640 5636 5638 5636
5445 5446 5448 5450 5454 5456 5460 5464 5468 5473 5478 5484 5489 5493 5497 5502 5506 5509 5515 5520 5524 5531 5545 5556 5565 5568 5580 5580 5583 5588 5586 5579 5579 5583 5585 5581 5584 5591 5589 5594 5594 5604 5606 5605 5603 5619 5628 5635 5637 5635 5633 5632 5631 5632
5435 5435 5434 5436 5439 5444 5448 5453 5459 5464 5469 5474 5480 5485 5490 5493 5497 5502 5508 5513 5519 5519 5536 5542 5547 5570 5577 5579 5580 5579 5577 5571 5567 5571 5572 5576 5577 5581 5579 5581 5586 5602 5601 5596 5599 5620 5618 5624 5629 5629 5626 5625 5625 5624
5427 5426 5426 5426 5426 5429 5436 5442 5448 5454 5460 5465 5471 5477 5482 5486 5490 5497 5503 5511 5512 5510 5518 5534 5543 5557 5570 5574 5573 5574 5574 5560 5563 5564 5567 5575 5583 5581 5574 5578 5603 5605 5605 5605 5606 5616 5612 5616 5623 5623 5621 5620 5619 5619
5420 5419 5418 5419 5419 5420 5423 5429 5438 5444 5451 5457 5463 5470 5474 5478 5482 5493 5501 5500 5505 5503 5510 5518 5527 5553 5567 5570 5565 5562 5564 5565 5565 5563 5565 5573 5577 5575 5570 5582 5596 5602 5604 5606 5606 5609 5613 5617 5614 5616 5614 5613 5612 5614
5415 5413 5411 5411 5412 5412 5414 5419 5427 5435 5442 5449 5456 5461 5468 5473 5477 5485 5493 5496 5496 5499 5506 5517 5522 5539 5564 5565 5565 5561 5556 5556 5560 5568 5564 5571 5568 5565 5573 5590 5594 5601 5603 5605 5607 5606 5605 5608 5608 5610 5609 5607 5605 5605
5411 5410 5408 5406 5406 5407 5409 5415 5422 5428 5434 5442 5449 5454 5461 5471 5480 5485 5489 5491 5493 5494 5508 5509 5511 5531 5552 5555 5559 5560 5561 5561 5557 5566 5565 5570 5564 5567 5580 5586 5594 5599 5598 5602 5604 5604 5605 5604 5605 5605 5603 5601 5599 5600
5409 5407 5406 5405 5405 5406 5409 5414 5419 5426 5431 5435 5441 5454 5465 5473 5478 5484 5483 5486 5490 5494 5500 5509 5509 5525 5541 5549 5558 5562 5557 5561 5560 5567 5567 5566 5566 5572 5579 5584 5586 5591 5592 5594 5594 5598 5595 5596 5596 5595 5597 5598 5598 5598
5407 5407 5407 5406 5406 5407 5411 5415 5420 5424 5428 5434 5452 5458 5465 5472 5474 5476 5485 5488 5494 5496 5501 5509 5519 5526 5537 5548 5551 5557 5561 5562 5563 5569 5569 5562 5567 5574 5581 5584 5588 5589 5589 5592 5590 5596 5591 5589 5589 5590 5593 5596 5598 5596
5406 5407 5407 5407 5408 5411 5414 5418 5422 5426 5436 5445 5453 5458 5464 5469 5478 5482 5488 5492 5495 5508 5516 5519 5528 5530 5539 5547 5553 5556 5561 5558 5568 5566 5568 5565 5567 5573 5575 5584 5586 5586 5588 5591 5592 5593 5592 5594 5594 5593 5593 5592 5592 5592
5406 5406 5406 5408 5411 5415 5418 5422 5426 5434 5441 5451 5459 5469 5474 5476 5491 5492 5497 5512 5506 5521 5533 5531 5538 5537 5540 5551 5554 5557 5561 5565 5568 5568 5568 5567 5569 5572 5575 5577 5582 5583 5586 5587 5589 5591 5591 5591 5592 5591 5590 5591 5591 5590
5407 5408 5410 5413 5415 5418 5422 5425 5430 5436 5450 5463 5471 5476 5482 5487 5494 5500 5507 5519 5528 5537 5539 5539 5544 5549 5554 5553 5554 5554 5564 5565 5565 5563 5565 5563 5569 5572 5571 5573 5574 5576 5578 5580 5582 5583 5584 5586 5587 5587 5586 5586 5588 5590
5410 5411 5413 5416 5420 5424 5428 5435 5442 5449 5457 5467 5483 5489 5492 5502 5507 5514 5519 5525 5535 5538 5541 5545 5551 5559 5552 5556 5559 5568 5569 5568 5564 5564 5564 5565 5567 5566 5567 5569 5570 5573 5574 5575 5575 5576 5579 5580 5582 5582 5582 5581 5583 5585
5414 5416 5421 5426 5431 5435 5440 5448 5451 5456 5467 5475 5487 5501 5508 5508 5513 5519 5523 5532 5540 5542 5546 5554 5560 5556 5565 5564 5573 5556 5566 5558 5558 5557 5558 5557 5560 5562 5564 5565 5565 5566 5566 5566 5568 5571 5573 5575 5576 5576 5578 5578 5578 5577
5422 5426 5431 5436 5440 5445 5450 5456 5458 5464 5472 5477 5498 5504 5508 5511 5517 5526 5531 5542 5542 5549 5556 5560 5564 5560 5560 5559 5553 5546 5554 5555 5553 5555 5551 5550 5553 5556 5558 5559 5558 5558 5558 5559 5560 5563 5565 5567 5569 5571 5568 5568 5569 5571
5430 5435 5441 5446 5447 5448 5452 5458 5464 5475 5485 5497 5506 5514 5514 5520 5524 5527 5535 5541 5548 5553 5556 5556 5556 5553 5551 5548 5548 5545 5551 5552 5549 5548 5545 5546 5549 5550 5552 5551 5551 5550 5550 5550 5549 5551 5554 5557 5557 5555 5555 5558 5561 5563
5441 5446 5449 5453 5455 5459 5466 5470 5476 5488 5497 5506 5511 5516 5518 5525 5532 5534 5542 5545 5550 5557 5559 5557 5554 5545 5543 5545 5543 5546 5547 5544 5545 5541 5540 5542 5543 5544 5544 5544 5544 5543 5544 5545 5545 5545 5543 5544 5542 5541 5542 5545 5547 5548
5449 5452 5456 5462 5468 5472 5481 5485 5485 5493 5512 5514 5518 5520 5524 5528 5532 5545 5549 5551 5555 5554 5543 5542 5540 5540 5543 5545 5544 5543 5543 5539 5538 5539 5541 5538 5536 5536 5535 5534 5533 5533 5533 5535 5535 5531 5532 5531 5530 5528 5528 5529 5532 5534
5458 5462 5468 5472 5477 5482 5488 5492 5498 5504 5511 5517 5519 5524 5527 5530 5535 5536 5537 5540 5540 5533 5535 5529 5532 5533 5536 5539 5538 5539 5541 5539 5541 5541 5538 5535 5531 5529 5528 5526 5526 5527 5526 5525 5523 5520 5517 5515 5516 5519 5519 5518 5518 5518
5467 5472 5476 5480 5485 5491 5490 5497 5501 5505 5513 5517 5523 5524 5519 5520 5520 5520 5519 5528 5528 5526 5527 5531 5530 5534 5541 5540 5542 5542 5540 5538 5536 5534 5533 5533 5529 5531 5525 5521 5521 5518 5516 5514 5511 5508 5507 5507 5507 5510 5510 5504 5499 5497
5476 5478 5479 5484 5492 5490 5498 5505 5517 5517 5525 5520 5519 5519 5511 5512 5519 5524 5527 5522 5522 5526 5525 5528 5533 5539 5541 5541 5540 5535 5535 5537 5537 5533 5531 5532 5528 5522 5520 5518 5516 5513 5510 5508 5502 5500 5498 5496 5497 5496 5492 5490 5486 5483
5483 5483 5486 5488 5493 5500 5511 5515 5514 5516 5513 5512 5510 5509 5505 5512 5520 5525 5522 5521 5523 5525 5528 5531 5534 5537 5535 5533 5528 5528 5529 5531 5533 5531 5528 5529 5525 5520 5516 5514 5511 5507 5505 5501 5499 5497 5495 5491 5486 5486 5482 5479 5475 5473
5483 5484 5489 5479 5500 5507 5509 5510 5508 5510 5503 5501 5505 5500 5502 5507 5512 5513 5516 5521 5526 5527 5527 5528 5531 5528 5528 5526 5524 5522 5524 5526 5525 5523 5519 5519 5519 5516 5514 5510 5507 5503 5502 5502 5497 5494 5488 5485 5481 5477 5473 5470 5467 5465
5478 5482 5483 5489 5492 5505 5502 5506 5503 5501 5504 5501 5504 5505 5509 5510 5513 5514 5514 5520 5520 5522 5524 5524 5527 5525 5518 5516 5519 5518 5519 5519 5521 5519 5513 5512 5513 5513 5509 5506 5503 5502 5498 5496 5494 5491 5486 5481 5476 5472 5468 5462 5457 5459
5476 5480 5481 5482 5488 5496 5496 5495 5496 5498 5504 5513 5505 5508 5503 5506 5516 5516 5519 5521 5519 5520 5520 5522 5521 5521 5518 5516 5516 5516 5517 5518 5517 5514 5511 5510 5510 5507 5505 5503 5500 5496 5495 5494 5491 5487 5482 5477 5473 5469 5464 5460 5456 5454
5481 5482 5495 5489 5497 5494 5502 5495 5503 5505 5503 5499 5503 5513 5519 5520 5521 5522 5523 5520 5519 5517 5517 5516 5516 5516 5514 5512 5511 5513 5514 5512 5513 5511 5509 5507 5503 5501 5498 5497 5494 5491 5490 5488 5485 5481 5477 5473 5469 5465 5461 5458 5455 5452
5490 5488 5492 5499 5503 5503 5503 5509 5509 5508 5508 5507 5510 5510 5516 5518 5517 5521 5519 5518 5518 5518 5516 5515 5512 5512 5511 5509 5507 5506 5507 5507 5508 5503 5499 5494 5493 5493 5490 5489 5488 5486 5483 5481 5477 5475 5473 5469 5466 5463 5459 5455 5453 5451
5503 5496 5506 5510 5515 5514 5514 5515 5519 5517 5517 5518 5518 5517 5515 5517 5516 5517 5519 5519 5518 5517 5516 5515 5512 5510 5507 5506 5503 5501 5499 5498 5497 5495 5491 5489 5486 5484 5483 5483 5483 5481 5480 5479 5476 5472 5469 5467 5464 5461 5458 5455 5451 5449
5506 5510 5522 5522 5521 5522 5524 5523 5524 5525 5523 5521 5520 5524 5516 5515 5516 5517 5518 5517 5516 5516 5516 5514 5512 5509 5506 5502 5500 5497 5495 5493 5491 5489 5486 5483 5481 5480 5479 5478 5477 5476 5476 5475 5473 5470 5466 5462 5459 5456 5453 5451 5448 5445
5521 5532 5532 5531 5533 5534 5536 5535 5533 5531 5531 5531 5530 5529 5524 5517 5518 5517 5521 5519 5518 5515 5513 5510 5511 5509 5505 5503 5501 5498 5495 5492 5488 5486 5484 5481 5479 5477 5475 5473 5472 5471 5470 5469 5467 5465 5462 5459 5456 5453 5450 5448 5446 5443
5538 5540 5540 5539 5537 5539 5537 5539 5537 5534 5533 5533 5533 5533 5527 5522 5524 5525 5525 5523 5519 5516 5513 5511 5509 5507 5505 5502 5499 5496 5492 5490 5488 5485 5482 5480 5478 5476 5473 5471 5469 5467 5465 5463 5461 5460 5459 5457 5454 5452 5449 5446 5443 5440